アトラス彗星

C/2019 N1 ( ATLAS )

English version
Home page
Updated on May 17, 2020

---------------------------------------------------------------------

・ プロフィール

発見日 2019年7月5日
発見光度 18.6等
発見者 Asteroid Terrestrial-Impact Last Alert System (ATLAS) search program

・ 写真集

・ 軌道要素

Epoch 2020 Dec. 17.0 TT = JDT 2459200.5
T 2020 Dec. 1.77766 TT                                  Rudenko
q   1.7045461            (2000.0)            P               Q
z  -0.0000036      Peri.  193.44454     -0.93824254     +0.25609005
 +/-0.0000050      Node    13.57283     -0.14506341     +0.31925390
e   1.0000062      Incl.   82.42742     -0.31409799     -0.91241155
From 724 observations 2019 June 10-2020 Mar. 18, mean residual 0".8.

・ 星図

・ 光度変化

        m1 = 6.5 + 5 logΔ + 10.0 log r

---------------------------------------------------------------------

軌道要素はM.P.E.C. 2020-F67に掲載されたものです。
星図はステラナビゲータ Ver.10 (アストロアーツ) で作成したものです。
光度グラフはComet for Windowsで作成したものです。

---------------------------------------------------------------------

Copyright(C) Seiichi Yoshida (comet@aerith.net). All rights reserved.